RH
61 58 56 53 51 49 47 44 42 40 38 36 34 32 30 28 26 25 25 24 24 22 21 21 20 18 17 15 15 14 14 14 13 12 11 11 10 10 10 11 10 10 10 8 9 11 11 9 8 8 9 9 9 9 9 8 7 8 9 9 10 10 9 9 10 11 10 14 20 21 19 19 20 18 21 28 29 28 29 31 36 39 40 39 36 32 27 24
63 63 60 58 56 53 51 48 46 43 41 39 38 36 34 32 30 29 28 27 26 25 25 24 23 21 20 19 17 17 16 15 14 13 12 11 11 11 11 11 11 11 11 10 10 11 12 10 8 10 11 10 10 10 9 8 8 9 9 10 12 11 10 10 11 11 11 11 18 24 23 22 22 18 16 22 24 24 30 32 34 38 37 34 33 29 23 18
61 63 64 62 60 58 55 52 49 47 45 44 43 41 38 36 34 33 32 30 29 28 27 26 25 24 23 21 20 19 17 16 15 14 13 12 11 11 11 11 11 12 11 11 11 12 12 10 10 11 12 12 11 11 11 10 9 10 10 12 14 12 10 11 11 10 11 10 12 20 20 18 18 12 10 15 16 19 26 28 30 35 34 32 34 30 21 16
61 61 62 63 62 60 59 56 54 51 50 49 49 47 45 42 40 38 36 33 31 30 29 28 27 25 24 23 22 21 19 17 15 14 13 13 12 12 12 12 12 12 12 12 13 13 12 12 12 13 14 15 14 13 13 13 12 11 11 14 15 13 12 11 11 10 11 10 10 14 14 12 12 10 9 11 15 22 26 27 30 33 32 32 33 28 21 19
65 63 61 61 61 60 59 59 58 56 54 54 53 52 50 49 47 44 40 37 34 33 32 30 29 27 26 24 23 22 19 17 16 15 14 13 13 12 12 13 13 12 12 13 13 13 13 14 14 14 16 16 15 15 16 16 13 13 14 16 16 14 14 13 13 12 11 11 11 11 11 11 12 11 14 17 23 26 24 25 26 26 27 27 27 24 21 21
71 67 64 62 60 59 58 58 59 59 57 57 56 54 52 51 49 48 45 42 38 37 35 32 31 29 27 25 24 22 19 17 15 15 14 13 13 12 12 13 13 13 13 13 13 14 14 15 16 16 18 17 17 17 18 17 14 15 17 18 17 16 17 15 14 13 12 12 12 12 11 14 15 18 20 21 25 25 20 21 21 19 20 23 24 23 22 19
72 72 69 66 63 61 59 60 60 60 59 58 57 55 52 49 48 46 45 45 44 41 37 34 33 30 28 26 24 21 19 18 16 15 14 14 13 12 12 12 13 13 13 13 13 14 14 16 18 18 18 17 17 18 18 17 15 17 19 20 19 18 18 17 15 14 13 14 14 14 13 15 18 22 22 20 22 21 19 20 19 18 20 23 26 26 23 19
61 72 73 69 67 65 64 64 64 63 61 59 58 55 52 49 47 45 45 47 46 43 39 37 35 31 28 26 22 20 19 18 16 15 15 14 13 12 12 12 12 12 12 13 13 14 15 16 18 19 19 18 18 19 18 17 18 19 20 21 20 18 19 18 16 15 15 15 16 14 13 15 18 21 22 22 21 19 19 20 20 21 22 24 24 23 21 20
41 59 71 72 69 68 68 68 68 66 64 62 60 57 55 52 50 49 49 48 45 44 42 39 35 31 27 23 21 19 18 17 16 15 14 13 13 12 12 12 11 12 12 12 12 13 14 16 18 19 19 19 19 19 18 18 18 19 20 20 19 18 19 18 16 15 15 15 15 14 15 16 19 22 22 21 20 18 19 20 22 22 22 24 22 20 19 22
29 40 56 67 70 68 68 69 70 69 67 65 63 60 57 54 53 52 51 49 48 47 44 40 35 29 24 21 19 18 17 16 15 13 13 12 12 12 11 11 11 11 11 12 12 12 13 14 17 19 19 19 19 19 18 17 18 19 19 19 19 19 19 19 17 16 15 15 15 15 16 18 19 22 22 21 19 19 20 20 22 21 23 24 20 19 20 23
28 29 37 52 64 68 67 68 70 70 69 67 64 62 58 56 55 53 52 52 51 48 43 38 31 24 21 19 17 16 15 14 13 12 12 11 11 11 11 11 11 11 11 12 12 12 12 13 14 17 18 19 19 18 18 18 18 19 19 19 19 20 19 19 19 18 17 16 16 15 16 18 20 22 22 21 20 20 21 21 21 21 23 22 20 20 21 23
29 29 29 36 52 64 67 67 69 70 70 68 66 63 59 57 56 55 54 53 51 47 41 34 26 21 18 17 16 15 14 12 11 11 10 10 10 10 10 10 10 10 10 11 12 12 12 12 13 15 17 18 19 19 18 19 19 19 20 20 20 20 19 19 20 20 19 18 17 16 17 17 19 21 20 21 20 20 21 21 20 21 22 21 20 21 23 25
31 32 31 33 44 58 65 67 69 71 71 69 66 63 60 59 58 56 54 52 49 45 36 28 22 19 17 16 15 13 12 10 10 10 10 10 10 10 10 10 10 10 10 11 11 12 12 13 13 15 16 18 19 19 19 19 19 20 20 20 20 19 19 20 20 20 19 18 18 17 16 17 18 19 19 20 20 20 20 20 22 23 24 23 24 28 33 35
36 37 38 39 45 55 63 67 69 71 70 68 65 62 60 59 58 57 55 51 46 39 29 23 19 17 16 15 15 13 11 10 9 9 9 10 10 10 10 10 10 10 10 11 12 12 13 14 15 16 16 17 18 19 19 19 19 19 19 19 18 18 19 19 19 19 17 16 17 17 14 15 17 18 18 20 20 19 19 21 24 25 25 27 35 46 44 37
39 42 43 44 49 56 63 66 69 70 70 67 64 62 60 59 59 58 55 48 40 32 25 20 18 16 15 15 15 13 11 10 9 9 10 10 10 10 10 10 10 10 11 11 11 12 13 14 15 16 16 16 17 17 17 18 18 18 17 17 17 17 17 17 17 16 14 13 13 13 13 14 17 18 19 20 19 19 20 22 25 24 25 31 39 45 42 35
38 42 45 47 51 57 62 65 67 69 69 67 65 63 60 59 59 56 51 43 35 28 22 19 17 16 15 16 15 14 12 11 11 10 10 10 10 10 9 10 10 10 10 11 11 11 12 13 13 14 14 15 15 15 15 15 16 16 16 16 15 15 15 14 14 12 9 10 11 12 13 14 16 17 18 19 19 20 23 24 25 24 28 35 39 41 47 49
35 39 43 47 51 55 59 62 64 66 66 65 63 62 60 58 56 52 47 39 31 25 21 18 17 16 15 16 15 15 14 14 13 12 11 11 11 10 9 9 9 9 9 9 10 10 11 12 12 12 12 12 13 13 13 13 13 14 14 14 14 13 13 11 10 9 8 9 10 12 13 14 16 17 18 20 20 21 24 25 27 30 36 42 44 48 55 57
37 37 39 42 45 49 51 54 57 60 62 60 59 58 56 54 52 48 43 36 29 24 20 18 17 16 16 15 15 15 15 15 15 14 13 12 11 11 11 10 9 8 8 8 8 9 9 9 9 9 10 10 10 10 10 11 12 11 11 11 11 11 10 10 10 9 10 13 14 14 14 15 15 17 18 19 20 24 27 32 38 44 50 54 54 57 57 53
43 40 40 40 40 43 45 48 50 53 56 56 54 52 50 49 48 45 40 34 29 23 19 18 18 17 16 16 16 15 15 15 15 15 15 14 13 12 11 11 10 9 8 8 8 8 8 8 8 7 7 8 7 8 9 9 9 9 8 8 9 10 11 10 12 13 13 22 28 26 25 22 19 18 18 21 28 33 35 40 50 57 61 65 65 63 58 55
52 47 43 42 41 41 42 44 46 49 53 53 50 47 46 46 44 40 37 33 28 22 18 18 18 17 17 16 16 16 16 16 15 16 15 15 14 13 12 12 11 11 10 9 8 8 7 7 7 7 7 7 7 8 8 7 7 7 7 8 9 11 13 13 20 24 21 31 43 41 35 31 27 23 21 29 40 43 44 46 55 64 70 73 70 62 58 61
59 55 50 46 44 43 42 42 44 46 50 52 51 46 41 40 38 34 32 30 26 21 18 18 18 17 18 17 17 16 16 16 16 16 16 16 16 14 14 13 12 12 11 11 10 9 8 8 7 7 7 7 7 8 7 7 7 7 8 9 10 12 16 19 30 37 34 41 55 52 41 35 32 28 25 32 42 48 50 47 55 70 76 78 75 68 66 65
65 63 59 53 48 45 44 45 44 45 47 49 49 44 35 32 34 36 35 28 22 20 16 16 18 18 19 19 18 18 18 18 17 17 17 18 18 17 15 14 13 13 12 12 11 10 10 9 8 8 7 7 7 7 7 7 7 7 9 11 13 16 20 26 33 43 48 52 63 63 51 41 37 37 35 37 46 54 54 47 54 72 79 80 81 78 75 67
69 69 67 63 56 49 45 44 46 46 46 46 45 40 35 34 33 36 40 30 19 18 16 16 18 18 20 20 20 20 20 19 19 19 19 18 19 18 17 15 15 14 13 12 12 12 11 10 10 9 8 8 7 7 7 8 8 9 13 17 19 21 25 33 38 47 58 60 65 69 62 54 50 51 51 51 55 56 56 51 54 68 78 82 84 83 79 68
64 67 69 70 67 59 48 42 43 43 44 47 47 40 33 35 36 34 36 32 22 18 17 18 18 19 21 21 23 23 22 21 20 20 20 20 20 19 18 17 16 15 14 13 12 12 12 12 11 11 10 9 8 9 8 9 11 14 20 23 25 26 31 40 46 53 64 66 68 70 66 63 63 65 66 64 62 56 56 56 52 61 77 85 86 84 80 73
64 64 66 71 74 70 59 46 38 37 39 41 45 46 36 30 33 35 34 30 23 20 20 20 21 22 23 23 25 25 24 24 22 22 22 22 22 20 19 18 17 16 15 14 14 13 12 12 12 12 12 11 10 11 10 10 13 19 28 29 29 35 41 49 54 60 68 70 72 70 65 68 72 74 76 74 70 63 62 62 54 56 70 79 83 83 79 78
62 65 66 68 72 74 70 58 43 35 35 32 33 43 45 35 28 32 39 38 32 26 23 24 24 24 24 25 27 27 26 26 25 23 23 24 23 21 20 19 18 17 16 16 15 14 14 13 13 13 12 13 12 12 12 13 14 23 35 37 37 44 53 59 61 65 70 71 72 70 65 71 77 79 80 78 76 71 67 69 65 62 65 70 75 78 80 82
58 62 65 67 68 71 72 68 58 43 34 29 27 32 42 45 37 31 37 44 45 40 33 30 29 29 28 28 29 30 31 29 27 27 26 26 25 23 23 21 20 19 17 17 16 16 16 14 14 14 14 14 13 13 14 14 16 26 41 46 43 48 62 70 68 68 71 72 74 73 67 72 82 84 82 80 79 77 73 72 72 69 67 67 69 76 83 87
62 61 63 66 67 68 69 70 69 59 44 32 29 29 32 41 45 41 36 37 46 54 51 44 40 39 39 37 37 43 46 42 39 38 34 31 28 25 24 24 23 23 20 18 18 18 18 17 16 15 16 16 16 17 17 17 21 29 44 55 52 52 68 79 74 71 75 76 79 80 72 72 82 88 86 84 82 80 79 78 78 76 71 70 71 76 82 85
60 67 68 67 68 69 69 70 70 69 60 44 34 33 33 36 41 46 44 40 47 61 66 65 62 56 51 48 50 55 58 58 59 55 47 40 35 29 28 29 27 26 24 22 20 20 21 20 20 18 17 17 20 24 21 21 29 35 44 60 64 60 70 82 79 75 79 81 84 86 78 73 78 84 86 88 84 78 75 74 77 78 78 79 80 80 81 81
45 60 70 71 70 71 71 71 69 68 68 61 47 38 39 41 41 45 48 45 50 62 71 77 77 72 65 62 61 59 58 62 67 68 61 53 47 41 37 34 31 28 28 26 23 22 25 26 25 24 23 22 23 28 27 26 33 38 40 53 68 69 71 81 85 83 84 87 90 90 87 84 82 80 79 78 76 73 69 67 72 75 78 84 86 84 81 79
33 44 60 70 71 71 73 73 70 66 65 67 63 51 45 45 45 47 47 45 51 60 68 73 71 71 74 77 78 72 66 64 66 70 70 63 57 52 46 40 37 33 30 29 29 28 29 29 28 29 31 30 27 29 32 33 34 36 36 40 56 72 79 82 85 86 86 88 89 89 89 88 84 78 71 62 58 63 65 68 73 75 76 78 81 84 84 80
22 30 45 60 66 69 72 71 69 68 63 61 64 63 58 53 49 51 50 49 56 62 64 64 61 65 72 77 83 83 78 73 71 74 75 69 64 60 58 55 49 44 38 34 34 34 32 30 29 32 35 34 34 35 40 42 39 36 35 32 36 58 80 86 85 87 88 86 84 84 83 81 80 76 63 45 39 51 64 68 72 76 77 77 79 83 83 80
16 18 30 47 60 66 68 66 65 70 69 62 60 61 63 63 60 60 62 63 67 69 69 63 57 59 63 67 78 85 84 81 79 81 80 73 69 66 67 68 62 57 53 47 43 41 42 41 37 39 43 41 38 40 46 50 47 39 35 32 27 35 60 79 86 87 89 89 84 81 80 77 75 68 49 30 25 37 50 54 57 63 69 74 80 82 78 74
27 17 17 31 51 62 63 62 61 66 70 68 64 61 60 62 63 64 67 69 73 74 72 67 58 52 50 54 65 71 78 85 86 87 86 78 73 67 64 67 66 65 62 56 50 48 53 58 53 51 53 48 42 47 58 64 60 48 39 36 29 23 35 60 80 89 90 90 87 83 78 71 65 53 37 28 23 26 35 41 44 49 57 65 69 71 75 75
45 32 16 16 35 52 55 57 57 58 63 66 68 66 62 60 62 65 63 60 65 69 67 63 60 57 55 61 69 67 70 81 86 90 90 84 78 70 65 67 69 67 64 60 56 51 56 65 68 64 57 50 51 61 71 75 71 59 47 44 38 26 23 34 54 73 82 83 81 77 67 57 50 39 30 29 25 25 32 36 37 40 48 58 64 70 78 81
52 47 31 14 17 31 41 49 55 54 54 56 60 63 63 63 63 67 67 64 62 62 61 58 57 59 60 71 88 85 76 78 83 89 89 85 84 79 73 74 71 63 60 61 61 56 55 62 71 73 63 50 55 69 79 80 77 70 60 52 46 39 34 33 37 44 53 59 60 56 50 48 51 44 33 32 32 31 31 34 48 63 65 64 70 79 82 83
52 53 47 30 16 14 22 34 47 50 49 48 49 51 55 61 62 63 68 72 70 65 62 57 54 57 61 73 93 95 89 89 86 87 89 86 85 80 77 81 74 62 58 58 59 59 58 60 66 74 72 61 59 70 82 84 82 79 71 58 51 53 50 47 46 43 42 47 48 48 45 45 52 50 35 30 34 31 26 33 61 87 89 80 78 84 87 88
47 52 53 46 31 16 12 18 28 37 40 42 43 42 43 47 51 53 58 65 70 71 69 63 56 57 63 80 97 96 93 94 89 89 94 95 89 77 75 83 76 64 61 58 59 65 66 69 76 78 80 82 82 83 86 88 83 78 76 69 66 70 68 56 49 47 50 54 53 57 57 51 53 55 40 30 33 35 32 39 62 85 93 89 84 88 94 96
29 42 49 52 45 30 17 12 15 21 27 32 36 35 35 33 32 37 44 50 57 63 66 67 62 57 58 72 91 95 89 84 86 92 97 98 97 83 73 81 80 72 69 65 67 76 78 81 92 92 89 96 99 96 95 95 83 70 73 79 74 73 77 72 60 54 59 63 62 65 68 63 65 70 61 48 47 56 59 63 80 96 99 95 88 89 95 97
10 22 37 51 54 43 27 15 13 14 15 20 25 26 27 25 20 22 30 36 43 49 55 61 61 59 57 57 67 80 83 80 85 94 97 95 96 88 78 83 85 80 80 79 77 82 84 84 93 99 98 100 101 99 100 98 83 68 68 76 74 70 73 76 74 69 67 68 67 67 66 64 66 73 76 68 60 65 75 79 86 92 91 92 90 84 81 84
4 7 19 40 57 56 40 21 13 14 12 13 17 19 20 20 17 16 21 28 33 38 44 51 54 55 55 53 54 61 71 81 90 96 97 93 91 90 88 89 88 83 87 92 86 84 87 85 90 101 102 99 101 101 100 96 87 78 70 68 72 75 75 75 77 74 68 63 62 61 57 55 59 69 81 82 70 63 67 72 76 79 80 85 84 74 72 80
5 3 6 22 46 62 57 35 18 14 13 12 12 14 15 16 16 15 16 22 28 31 38 44 49 52 52 50 51 50 54 71 92 102 98 89 87 89 89 90 91 89 90 94 90 87 90 90 92 101 102 99 100 100 99 99 96 92 83 72 69 73 75 75 76 76 71 65 60 56 49 41 42 54 68 78 77 71 69 68 68 75 82 85 84 83 85 89
6 5 4 9 30 60 71 54 31 19 15 14 12 12 13 13 14 15 14 19 22 29 39 44 47 55 55 51 50 51 50 57 76 94 96 91 91 88 82 80 84 91 96 97 91 85 87 89 89 95 101 101 100 100 101 100 98 99 94 82 73 71 71 71 71 70 70 69 66 62 51 35 28 33 40 48 58 67 77 80 78 80 87 90 92 92 91 89
7 6 5 4 15 44 69 70 51 30 19 17 16 13 13 13 12 12 15 18 19 25 37 45 49 56 58 56 55 57 55 49 52 69 83 91 93 86 80 75 73 82 94 98 95 89 87 88 87 89 97 101 101 101 102 99 95 99 99 91 81 75 70 67 66 63 62 62 62 60 49 32 26 30 34 34 35 41 55 68 75 81 83 81 79 78 79 82
9 7 6 12 19 27 47 66 68 54 36 26 22 17 15 15 14 13 12 14 17 21 27 38 54 66 66 62 62 65 66 56 45 50 68 84 92 88 82 78 71 74 83 90 96 99 96 94 93 90 91 98 103 100 98 99 97 97 97 92 85 79 71 65 61 62 62 59 56 54 44 32 28 33 40 42 37 35 38 43 51 59 63 64 66 68 72 75
10 7 7 29 51 45 42 56 68 70 56 35 25 22 20 17 15 15 14 12 16 21 23 31 54 77 78 68 66 72 78 74 58 50 58 75 89 94 91 87 78 69 69 79 93 100 96 94 98 98 91 91 100 101 97 99 101 100 96 88 83 81 76 67 59 61 66 65 60 53 41 32 27 24 30 38 39 37 35 30 29 32 38 46 56 65 69 63
10 9 4 32 77 85 76 79 82 82 76 61 47 39 29 21 18 19 17 14 15 19 22 28 49 79 86 71 65 72 79 82 75 66 67 74 85 94 98 99 94 80 73 79 90 96 97 92 91 97 98 92 92 97 100 100 97 98 99 93 87 84 84 78 68 63 64 63 58 44 31 29 26 19 20 25 27 30 29 25 24 25 28 34 41 48 49 41
10 11 5 29 82 103 96 97 100 96 92 88 85 74 51 29 21 23 23 19 17 19 23 23 37 72 91 77 62 64 76 86 84 78 79 83 85 87 91 97 99 93 86 85 86 90 97 96 89 90 97 98 94 92 97 99 94 91 97 100 94 88 89 91 87 78 68 60 52 38 30 32 30 23 22 22 22 26 27 26 27 27 28 31 36 41 41 36
11 12 8 25 73 104 102 98 100 101 98 96 99 98 82 54 32 26 27 25 21 20 25 25 27 53 88 92 71 61 73 91 95 86 83 88 91 89 87 90 91 88 84 81 82 85 89 96 99 93 89 95 98 94 92 96 96 94 97 101 100 94 86 82 83 79 69 60 52 42 40 44 40 33 31 28 26 26 25 23 23 21 21 22 24 27 31 34
12 13 10 16 43 75 95 103 101 99 99 99 101 102 101 89 65 43 32 29 27 23 23 27 28 39 70 94 92 78 77 90 100 96 87 87 94 95 92 91 89 87 83 78 77 82 85 91 98 98 94 95 98 98 96 96 97 98 98 96 97 95 80 64 59 56 52 51 50 48 51 55 52 45 39 31 25 24 24 23 21 18 19 21 19 17 17 19
14 12 12 17 29 44 64 85 99 103 100 99 101 101 102 104 96 76 53 38 33 29 24 26 30 36 52 73 89 93 90 92 101 103 96 94 97 96 93 91 89 88 86 78 72 71 70 67 69 81 96 101 98 99 100 98 98 101 100 93 90 89 82 71 61 51 45 47 50 54 60 62 59 54 48 41 33 26 24 22 21 20 20 22 21 17 14 14
17 15 10 13 31 50 61 66 79 96 102 100 100 100 99 102 103 96 80 61 46 35 28 25 25 32 41 49 60 72 79 86 94 94 94 98 102 99 94 90 87 86 83 78 75 73 69 64 63 76 96 104 101 101 102 101 102 102 99 95 91 89 86 81 72 62 55 53 52 53 52 51 52 54 56 57 52 43 34 27 23 21 19 19 20 19 19 18
Wind_Speed
24 24 24 24 24 24 24 24 24 24 24 24 24 24 24 24 25 25 25 25 26 26 26 26 26 27 28 29 29 29 30 30 30 31 31 31 31 31 30 30 30 29 29 30 29 28 28 29 29 28 28 27 27 27 27 27 26 24 22 20 18 18 18 17 17 22 26 28 30 31 32 35 36 36 36 34 34 34 34 35 33 31 30 30 31 30 29 28
25 25 25 25 25 24 24 24 24 24 24 24 24 24 24 24 24 24 25 25 26 26 26 26 26 27 27 28 29 29 30 30 31 31 31 31 31 31 30 30 30 29 29 30 30 29 29 29 29 28 28 27 27 27 27 27 26 24 22 19 17 17 19 19 20 23 27 30 32 35 36 36 37 36 36 35 36 37 36 35 33 30 29 29 28 27 25 24
27 26 26 25 25 25 25 24 24 24 24 24 24 24 24 24 24 24 24 25 25 26 26 26 26 27 27 28 28 29 30 30 31 31 31 31 31 31 30 29 29 30 30 30 30 29 29 29 29 27 27 27 27 27 26 27 26 24 23 19 16 19 22 22 23 25 28 30 33 37 38 36 37 36 35 34 35 37 35 32 30 28 27 27 26 25 22 20
28 28 27 27 26 26 25 25 25 25 25 24 24 24 24 24 24 24 24 25 25 25 26 26 26 26 27 28 28 28 29 30 30 31 30 31 31 30 29 29 29 29 29 29 29 29 29 29 28 27 27 26 27 26 25 24 24 24 22 18 18 22 23 22 24 27 28 29 32 34 34 33 33 32 30 29 30 28 26 25 23 23 24 25 25 23 20 17
28 28 28 28 28 27 27 26 26 26 26 25 26 26 26 25 25 24 24 24 25 25 25 26 26 26 27 27 28 28 29 30 30 30 30 30 30 30 29 28 28 29 28 28 28 29 29 28 27 27 26 26 27 25 24 24 25 24 21 19 20 22 21 21 24 26 27 28 29 29 29 29 28 26 24 24 23 21 20 20 18 18 20 22 21 20 18 16
29 29 29 28 28 28 27 27 27 27 27 27 27 27 27 27 26 26 25 25 25 25 25 25 25 26 26 27 27 27 28 29 29 29 29 29 29 29 29 28 28 28 28 27 28 28 28 28 27 27 26 27 27 25 25 26 26 25 21 19 20 20 20 22 24 26 26 26 26 25 24 25 25 22 22 22 20 19 19 17 14 15 17 18 16 15 14 14
29 29 28 28 28 28 27 27 27 27 28 28 28 28 27 27 27 27 26 26 25 25 25 25 25 26 26 26 27 27 28 28 28 28 28 28 28 28 28 28 28 28 28 28 28 28 28 28 27 27 27 28 27 27 28 29 28 26 21 20 21 21 21 22 24 25 25 25 24 21 20 21 21 22 24 24 22 21 18 14 13 14 14 14 12 12 11 11
28 28 28 28 28 27 27 27 27 28 28 28 28 28 27 27 26 26 26 25 25 25 25 25 25 25 26 26 26 27 27 28 27 27 27 27 27 27 27 27 27 27 28 28 28 28 28 27 28 28 28 29 29 30 31 31 29 26 23 23 24 23 23 24 25 25 25 24 22 20 18 17 18 21 24 23 22 20 16 13 13 13 12 12 12 12 9 8
28 28 28 28 27 27 27 27 27 27 28 28 27 27 27 26 26 25 25 25 25 25 25 25 25 25 26 26 26 26 27 27 26 26 26 26 26 26 26 26 26 26 27 28 28 27 27 28 29 30 31 31 32 32 32 31 30 27 26 26 26 25 25 25 26 25 24 24 22 20 17 16 18 21 23 21 20 18 15 13 13 13 11 12 12 11 9 8
27 27 27 27 27 27 26 26 27 27 27 27 27 27 26 26 25 24 24 24 24 24 24 25 25 25 25 25 25 26 26 26 26 26 26 26 26 26 26 25 25 25 26 26 27 28 29 31 32 32 32 32 32 32 32 31 29 28 28 27 25 25 25 26 26 25 25 24 22 18 15 16 18 21 22 22 19 16 15 14 14 13 12 13 13 11 10 10
25 26 26 27 27 26 26 26 26 26 26 26 26 26 25 25 24 24 24 24 24 24 24 24 25 25 24 24 25 25 25 24 24 24 25 25 24 24 24 25 25 25 25 25 27 29 30 31 31 31 31 30 30 31 30 30 29 28 28 26 25 25 25 26 26 27 26 25 23 17 15 16 17 21 23 23 20 17 16 16 15 14 14 14 14 12 12 12
24 25 25 26 26 25 25 25 25 24 24 24 25 25 25 24 24 24 23 23 23 24 24 24 24 24 24 24 23 24 24 23 22 23 23 23 23 23 23 23 23 24 25 26 27 27 28 29 29 30 30 29 29 30 29 29 28 29 28 27 26 25 25 25 26 28 28 27 25 21 19 17 18 23 25 23 19 17 18 18 16 16 16 16 15 14 13 13
22 23 24 24 24 24 24 24 24 23 23 23 23 24 24 24 23 23 23 23 23 23 24 24 24 23 23 23 21 22 23 21 21 21 21 21 20 20 21 21 22 22 23 25 25 26 26 26 27 29 29 28 29 28 28 28 28 29 29 28 28 27 26 26 28 29 29 29 27 25 24 20 20 25 26 22 19 18 19 18 18 17 17 16 14 12 12 12
20 21 22 22 23 23 23 23 23 23 23 23 23 23 23 23 23 23 23 23 23 23 24 23 23 22 22 21 20 21 21 18 18 19 19 19 18 18 19 20 20 21 22 23 24 24 25 24 25 26 26 27 28 28 28 28 29 30 29 28 28 27 27 28 30 30 30 29 27 28 28 21 20 25 25 22 20 20 20 19 19 18 17 14 10 9 11 11
19 19 20 21 21 22 22 22 22 23 22 22 22 22 23 23 23 23 23 23 23 23 23 22 22 22 22 21 19 19 18 16 15 16 17 17 17 17 18 19 20 21 22 23 24 25 25 24 23 24 25 26 27 28 29 29 29 29 28 28 27 28 28 30 30 29 28 28 28 31 28 21 22 26 27 25 22 20 20 20 20 19 17 13 10 9 10 11
18 18 19 20 20 21 22 22 22 23 22 22 22 22 22 23 23 23 23 23 23 23 22 22 22 21 22 20 18 18 17 14 13 14 15 16 16 16 17 18 20 21 22 23 24 25 25 25 25 25 26 26 27 28 29 29 30 29 28 29 29 29 29 29 28 27 27 27 28 29 26 24 25 29 29 26 22 20 21 21 20 18 16 14 13 10 7 6
17 17 18 19 20 21 21 22 22 23 23 22 23 23 23 23 23 23 23 23 23 22 22 22 21 21 22 20 19 18 17 14 13 13 14 15 15 16 17 18 19 19 21 22 22 23 25 25 26 26 27 28 28 28 28 29 29 28 29 30 31 30 29 28 26 26 27 27 26 26 26 26 27 29 30 26 23 22 22 21 19 17 15 14 15 12 9 8
16 16 17 18 19 20 21 21 22 23 23 23 23 23 23 23 23 23 23 23 23 22 22 22 21 21 21 20 19 19 17 16 15 14 14 14 14 15 16 17 17 18 18 19 20 21 22 23 24 25 26 26 26 26 25 26 26 28 29 29 29 28 27 26 26 26 26 24 24 25 26 26 27 30 30 28 24 22 21 19 16 14 12 13 13 13 13 13
15 16 16 17 18 19 20 21 21 22 22 23 23 23 24 23 23 23 23 23 23 23 23 22 20 20 19 18 18 17 17 17 16 16 15 14 14 15 16 16 17 17 17 17 19 20 20 21 22 22 22 21 21 22 23 25 27 28 28 26 26 25 25 25 24 25 26 22 20 21 22 24 27 29 29 27 22 18 19 17 13 9 9 11 11 12 14 14
16 16 16 16 17 18 19 19 20 21 22 23 23 23 23 23 23 23 23 23 23 23 23 22 21 21 19 18 17 17 18 18 17 17 17 16 15 15 16 16 16 16 16 16 17 18 18 19 19 19 20 19 20 22 25 27 28 27 25 23 24 24 25 24 23 24 26 21 16 18 20 22 24 25 26 24 19 16 17 15 10 6 8 11 12 13 14 14
17 16 16 16 17 17 18 18 19 20 21 22 22 22 22 22 22 22 22 23 23 23 22 22 22 20 18 18 18 19 18 18 18 18 17 17 17 17 16 16 16 17 17 17 16 17 16 16 16 19 20 21 22 24 27 27 25 25 23 23 24 26 26 25 25 24 23 17 12 14 18 19 21 21 20 19 15 13 14 13 9 6 9 12 14 15 16 15
17 17 17 17 17 18 18 18 18 19 19 20 21 21 21 22 22 22 22 22 22 22 22 23 22 20 19 18 18 18 19 19 18 18 18 18 19 18 17 16 17 17 17 17 16 17 17 16 17 19 20 21 23 24 24 24 24 24 23 24 26 27 27 26 26 23 18 16 13 11 12 15 16 16 15 13 11 12 14 14 11 9 11 13 15 16 18 17
18 17 18 18 18 19 19 19 19 19 19 19 19 20 21 22 22 22 22 22 21 21 21 23 23 22 20 18 18 19 20 20 19 18 19 20 20 19 18 18 18 17 17 17 17 18 19 19 20 20 19 20 22 23 21 20 21 22 23 24 26 28 27 26 25 22 17 17 17 13 11 12 13 13 13 12 12 14 16 16 14 13 13 15 16 18 20 19
20 19 19 18 19 19 19 19 19 19 19 19 19 20 21 22 22 21 22 22 21 19 20 23 23 21 19 18 18 19 20 20 20 20 20 20 20 19 19 20 19 17 17 18 20 21 22 22 23 23 22 22 23 23 22 19 19 20 22 24 27 28 28 25 24 22 19 19 20 19 15 13 13 13 13 14 15 14 15 17 16 15 15 16 19 20 20 20
23 22 20 19 19 19 20 20 19 19 19 19 19 21 21 21 21 21 20 20 20 19 19 21 21 20 21 19 17 18 20 20 20 20 19 19 19 20 21 21 19 18 18 19 20 22 23 23 23 24 23 24 25 25 23 22 20 19 21 25 28 29 28 26 24 23 22 22 23 23 19 15 15 14 15 16 17 17 18 19 18 17 18 18 19 20 20 19
24 24 23 21 20 19 20 20 20 19 19 18 18 21 22 21 20 21 21 20 19 18 18 20 21 22 22 19 18 20 20 19 20 21 20 20 21 22 22 21 20 20 21 21 22 22 23 23 23 23 23 24 24 25 25 23 21 19 21 27 30 30 27 26 25 25 25 25 26 25 22 20 19 17 17 18 20 21 22 22 22 22 23 21 21 20 19 18
25 25 24 23 22 21 20 20 20 19 19 17 18 21 22 21 20 20 21 21 20 20 19 19 21 21 22 21 21 21 20 20 21 21 20 20 21 22 23 22 21 22 23 24 23 23 23 23 22 22 22 23 24 25 24 23 23 21 23 30 32 32 28 26 27 28 28 28 28 26 25 25 24 21 21 22 23 23 24 26 26 27 27 26 25 21 18 18
24 24 25 25 24 23 21 20 20 20 20 18 19 21 20 20 20 20 20 19 18 19 20 21 21 20 22 23 22 21 21 22 22 21 22 23 23 24 23 22 22 23 25 25 23 22 23 23 22 22 23 23 24 24 24 24 23 22 26 33 35 34 31 28 30 31 30 30 29 29 28 28 28 26 25 26 26 27 28 29 29 28 28 28 27 24 21 21
25 24 24 24 25 25 23 22 21 21 21 20 21 21 19 19 20 21 21 19 17 16 18 21 22 22 24 23 21 21 22 22 22 22 24 25 25 24 23 22 24 27 28 27 25 24 24 24 24 24 24 24 25 26 26 26 23 21 27 35 37 36 33 31 31 33 33 32 30 31 31 30 31 29 27 28 29 30 31 32 32 31 29 29 28 26 26 25
27 25 23 24 24 25 25 24 23 22 22 22 22 21 21 21 21 21 21 19 17 17 17 19 21 22 23 21 20 21 22 22 22 21 23 25 24 23 23 25 27 29 29 28 26 25 25 25 26 25 25 25 25 26 27 25 23 23 27 34 38 38 36 34 34 35 35 34 32 33 33 32 32 30 27 29 30 32 33 34 35 35 32 30 29 29 28 27
29 27 25 24 24 24 25 26 26 24 23 23 23 23 23 23 23 22 20 17 18 19 19 20 22 21 21 21 20 21 22 22 22 21 21 23 24 23 23 25 26 27 28 26 24 24 25 25 26 25 24 25 25 25 24 22 21 23 25 30 35 39 39 37 37 37 36 35 35 35 34 34 34 32 29 28 28 30 33 34 36 37 36 34 33 31 29 27
30 29 27 26 25 23 26 28 26 25 25 25 24 24 25 25 25 23 19 18 19 19 19 22 23 22 22 24 23 23 24 24 24 22 21 21 22 21 21 23 24 26 27 24 21 23 24 24 24 24 23 23 23 22 21 20 19 21 24 26 30 37 41 40 39 38 38 37 37 36 36 36 35 35 34 31 28 28 30 33 35 37 37 36 33 30 29 29
30 30 29 28 27 26 29 30 26 25 27 27 26 25 26 27 26 22 20 22 22 20 21 23 24 24 25 26 25 24 25 26 25 24 23 23 22 21 21 23 25 26 26 23 21 22 23 23 22 21 20 20 20 20 21 21 21 20 22 25 28 34 39 42 42 41 39 37 37 38 37 37 37 37 37 33 29 28 28 30 32 34 35 34 31 30 30 32
29 29 29 29 29 30 32 32 28 26 28 29 28 28 28 27 23 19 20 23 23 22 24 24 25 25 25 25 25 26 26 26 25 25 25 24 23 23 23 25 26 25 25 23 22 23 23 23 23 21 19 19 19 18 18 21 23 22 22 24 27 32 35 39 42 42 41 39 38 38 38 38 39 39 39 35 30 28 27 27 28 31 33 33 32 32 32 32
30 28 27 28 31 33 36 35 31 28 28 29 30 31 29 25 21 19 20 22 24 25 25 24 24 24 24 23 23 25 26 26 26 26 25 24 22 22 23 24 27 26 25 24 24 24 24 23 24 22 20 19 18 16 17 20 23 24 25 25 25 29 33 36 40 43 43 42 41 40 38 38 39 39 40 37 31 28 26 25 26 27 29 32 32 33 33 32
30 28 27 28 31 35 38 36 33 31 30 31 33 33 28 24 22 22 22 24 26 26 25 23 24 24 24 23 22 23 26 27 28 27 26 24 22 21 21 22 24 24 23 24 25 25 25 24 24 22 20 20 20 19 19 20 22 24 27 26 25 27 29 32 35 38 40 40 38 38 34 33 34 36 37 34 30 28 27 26 24 22 25 28 30 32 33 31
29 29 29 30 31 35 37 36 34 34 33 34 35 32 27 25 25 24 25 27 27 27 25 24 24 25 25 25 24 25 26 26 28 26 25 24 23 22 22 21 21 21 21 23 24 24 24 24 25 23 20 21 22 23 23 23 23 24 26 26 27 27 27 28 29 31 33 33 31 31 28 27 29 32 33 31 28 28 28 27 25 23 26 28 30 32 32 30
28 29 30 30 31 33 35 34 34 35 35 36 36 32 29 27 26 26 27 28 28 29 28 26 26 26 26 26 26 27 27 27 27 25 22 23 25 24 23 23 22 21 21 23 24 24 23 22 24 24 22 21 22 23 26 26 24 23 24 25 26 26 25 26 27 27 28 27 25 25 25 25 26 27 28 27 25 24 26 27 27 28 29 30 30 30 28 27
29 30 30 30 31 33 33 32 33 36 38 38 36 32 30 28 27 28 28 29 30 31 30 29 29 29 29 28 27 27 27 28 28 27 24 25 26 24 23 23 22 22 23 24 25 25 24 22 22 23 23 22 22 24 27 26 22 22 24 24 25 26 25 25 26 26 25 22 21 21 21 22 22 22 23 23 21 20 20 22 22 24 25 24 25 25 23 22
30 32 30 29 31 33 33 32 34 36 37 37 35 33 31 29 29 30 30 31 32 32 31 31 31 31 31 31 31 30 29 29 30 30 28 28 28 26 24 24 23 24 25 26 27 27 26 24 22 22 23 24 24 26 28 25 21 22 25 26 25 26 26 26 25 24 23 20 18 18 18 18 19 20 20 21 21 20 19 19 19 21 21 20 21 22 22 22
30 32 30 29 30 32 33 34 34 34 34 33 32 32 32 32 32 33 33 34 34 34 33 33 33 34 34 34 33 32 32 30 30 32 33 32 30 29 29 28 27 28 28 28 29 28 27 26 25 22 22 23 25 26 27 25 23 23 26 27 27 27 27 27 25 24 24 21 20 19 17 17 18 19 19 20 21 22 21 21 20 21 21 21 22 23 23 22
27 31 30 29 29 30 32 34 34 33 32 31 31 31 33 34 33 34 35 36 36 36 36 35 35 36 35 35 35 35 34 33 32 34 36 36 33 31 32 32 31 31 32 32 32 31 28 27 26 24 22 22 24 26 26 26 25 24 26 28 29 29 29 29 27 27 26 25 25 24 22 21 20 19 20 20 20 20 21 21 20 21 22 23 25 24 22 21
23 26 28 28 27 28 31 34 34 34 33 31 31 32 33 33 33 34 36 38 38 38 38 38 39 38 38 37 36 36 36 36 35 35 36 38 38 36 34 34 34 33 34 35 35 34 32 30 28 27 25 24 25 28 29 29 29 28 28 30 30 30 31 30 29 29 30 30 29 28 25 24 23 21 21 21 21 20 20 20 21 21 21 23 24 22 20 20
21 21 24 26 27 28 30 32 33 33 33 32 32 33 32 31 31 33 37 40 40 40 41 42 42 41 40 39 38 37 38 38 37 35 33 34 39 40 39 38 37 34 33 34 36 36 35 33 32 31 30 29 29 31 32 33 34 33 32 32 32 32 30 29 29 30 32 33 32 31 28 26 24 23 23 22 23 23 23 23 23 23 24 25 26 25 24 22
19 18 21 23 25 27 28 30 31 32 32 33 34 33 32 31 31 33 38 41 41 41 43 44 44 43 42 41 39 38 38 38 37 36 33 31 34 39 40 40 39 37 35 34 35 37 36 35 34 34 34 33 33 33 33 34 36 37 36 34 33 32 30 28 28 28 30 32 33 33 31 28 27 26 25 23 22 23 23 24 25 27 28 29 29 29 27 26
17 15 19 21 21 25 27 26 29 32 33 34 34 33 32 31 31 32 36 40 41 43 45 45 44 44 44 44 42 41 40 39 38 38 35 32 32 35 37 39 39 39 38 36 36 37 38 38 36 34 35 36 35 34 35 35 36 37 36 35 35 33 31 29 28 29 30 31 32 33 32 31 30 29 27 26 25 25 25 26 27 29 30 31 31 31 30 30
15 13 20 25 22 22 25 25 26 30 33 33 33 32 31 31 30 30 33 37 41 43 45 46 45 44 44 45 45 43 42 40 39 38 37 35 34 34 34 36 37 38 37 37 37 39 40 41 41 38 38 38 38 36 36 36 38 38 37 37 37 35 32 31 30 31 32 32 33 34 33 32 31 30 30 30 30 30 31 30 30 30 31 32 33 34 35 36
13 10 19 28 27 24 23 22 23 27 28 27 28 28 29 30 29 29 31 34 39 43 45 47 46 44 44 45 45 44 42 40 38 38 38 38 38 37 36 35 35 35 34 33 34 34 35 39 42 42 41 41 40 39 38 37 38 39 38 36 35 33 32 32 33 33 34 35 36 36 35 34 33 33 33 33 33 34 34 34 33 32 32 33 34 35 36 37
12 9 17 27 30 29 24 17 15 21 25 25 25 24 25 27 29 30 30 32 36 41 45 47 47 46 44 44 45 45 42 38 36 37 38 38 39 40 40 39 37 35 33 32 31 31 32 36 40 41 42 42 41 41 41 40 39 39 40 39 37 34 34 35 36 36 37 38 38 38 37 37 36 36 35 35 35 36 37 37 37 36 35 36 36 36 36 37
13 7 13 22 29 32 30 23 16 16 21 25 26 25 25 26 28 30 31 32 35 39 43 46 47 47 46 45 44 45 44 40 37 36 37 38 39 40 42 41 40 38 35 33 33 34 34 36 37 37 39 41 42 42 42 43 42 41 42 43 41 38 38 39 39 38 38 38 39 39 39 40 40 39 38 38 38 38 39 39 40 40 39 39 40 40 40 41
14 8 8 18 24 28 30 29 25 20 18 19 21 23 24 25 26 29 32 33 34 37 40 44 47 47 47 46 45 44 44 42 39 37 37 38 39 40 42 42 41 39 36 34 34 36 37 38 38 37 36 38 40 40 41 42 43 44 43 44 43 40 38 39 40 39 39 38 39 39 40 41 41 40 40 40 40 41 41 42 42 42 42 43 44 44 44 45
15 11 5 11 19 24 25 26 27 25 22 19 18 19 22 24 25 27 30 32 33 34 36 39 43 45 46 46 46 45 45 44 42 40 39 39 39 40 41 41 40 38 36 35 35 35 36 37 37 37 35 35 35 36 36 37 38 39 40 40 40 38 37 38 39 40 41 40 40 41 41 41 42 42 43 43 43 44 44 44 44 44 45 46 47 47 48 48
Wind_Direction
256 256 255 255 254 253 252 251 251 250 250 249 248 247 245 244 244 244 244 245 245 246 246 247 247 248 249 249 250 251 252 251 251 250 250 249 249 249 249 249 249 249 249 249 249 248 247 248 248 248 248 247 247 248 249 251 253 253 253 252 251 250 248 244 232 230 236 230 222 220 220 221 221 223 226 229 235 240 244 248 254 262 270 276 280 283 284 284
255 255 255 255 255 255 254 253 253 252 251 250 250 249 248 247 246 245 245 245 245 246 247 248 249 249 250 251 251 252 253 253 252 252 252 251 250 250 250 250 249 249 249 249 249 248 247 248 249 248 247 248 249 249 250 252 253 252 252 251 249 248 247 242 232 230 232 231 226 221 220 221 224 229 233 234 237 242 245 249 255 262 269 274 281 285 284 285
254 255 255 255 255 254 254 254 253 253 252 252 251 251 250 249 248 247 246 246 246 246 247 248 249 250 251 251 252 253 253 253 253 253 253 253 253 252 252 251 250 249 249 249 249 249 248 249 250 249 248 249 250 251 252 254 254 253 253 249 243 242 243 238 236 235 232 233 232 228 227 228 231 239 243 243 243 246 248 254 259 264 268 269 277 285 288 286
254 254 254 254 254 254 253 254 253 253 253 253 253 252 252 251 250 249 248 247 247 247 248 249 250 251 252 252 253 253 253 253 253 254 254 254 254 253 252 251 250 250 249 248 248 248 249 249 249 248 247 247 248 250 251 253 253 253 252 244 237 242 245 243 243 244 240 239 238 236 239 241 243 249 253 254 254 254 257 261 265 269 268 267 271 279 285 284
254 254 254 255 255 254 253 253 253 254 253 253 253 253 252 252 251 251 250 249 249 249 250 250 251 252 253 254 254 255 255 254 254 254 254 254 254 253 252 251 250 250 249 247 247 247 248 247 247 246 245 244 246 247 247 249 250 250 248 240 240 245 246 245 246 249 248 246 243 244 248 250 253 259 261 262 259 254 258 263 268 270 268 268 271 274 280 282
255 255 255 255 255 255 254 253 253 253 254 254 253 254 253 253 253 252 251 250 250 250 251 252 253 254 254 255 256 256 256 256 255 254 254 254 254 253 252 251 249 249 248 246 245 245 245 244 243 243 242 243 244 244 244 245 247 246 244 241 243 244 243 246 248 251 251 249 248 249 251 251 254 261 264 260 249 243 252 262 269 270 266 268 272 277 279 280
255 255 255 256 256 256 255 254 254 254 255 255 255 256 256 255 254 253 252 251 251 251 251 252 253 254 254 255 256 257 257 257 256 256 255 255 254 253 251 250 249 248 247 245 244 243 242 241 240 239 239 242 242 240 242 244 244 243 240 239 242 242 241 245 249 252 254 252 250 251 251 249 250 257 262 257 248 249 257 263 266 267 266 267 272 277 280 284
255 255 255 255 256 256 256 255 255 255 256 256 257 257 257 256 255 254 253 252 251 251 251 252 253 253 254 255 256 257 258 258 258 258 257 256 254 253 251 249 248 246 245 244 243 241 240 239 237 237 237 238 237 236 239 241 242 240 237 236 240 241 238 240 246 250 253 253 252 252 252 251 250 253 256 254 252 258 263 264 266 267 267 265 267 272 281 291
256 255 254 254 255 256 256 256 256 256 256 257 258 258 257 256 255 254 253 252 251 250 250 251 252 253 253 254 256 257 258 259 259 258 256 255 254 253 251 249 247 245 244 243 242 241 239 236 234 234 233 234 234 235 238 241 241 240 239 240 243 245 242 243 248 251 253 253 252 252 250 249 250 252 255 256 256 262 266 265 266 268 266 262 266 269 272 282
256 255 254 254 254 255 256 257 257 258 258 258 258 258 257 256 255 254 253 252 251 250 250 251 251 252 252 253 255 256 257 258 258 257 255 254 252 252 251 249 247 245 243 240 238 236 234 232 232 233 234 235 235 238 242 244 244 243 243 245 246 247 246 248 252 255 257 255 255 252 244 240 245 253 259 261 261 263 265 264 264 264 262 261 264 265 266 276
257 255 254 253 253 254 255 257 258 259 259 259 258 257 257 256 254 253 252 251 251 250 250 250 250 250 251 252 253 255 257 256 256 256 254 253 251 250 249 248 246 244 241 238 235 234 233 234 235 237 238 240 240 242 245 246 247 246 246 248 248 247 247 250 254 257 258 258 258 251 240 239 245 253 257 259 261 260 259 260 260 259 258 259 261 264 269 278
261 257 255 254 253 253 255 256 258 259 260 259 258 256 255 254 254 253 252 251 251 250 249 249 249 249 250 250 252 253 254 254 252 251 250 250 249 248 247 246 244 241 238 236 236 235 236 238 239 239 240 242 243 244 246 246 248 248 248 249 249 248 249 250 253 256 258 259 259 252 245 244 246 251 254 254 255 256 255 256 257 256 257 258 262 268 273 279
264 260 256 254 253 253 254 256 257 258 258 257 256 255 254 254 253 252 251 250 250 249 248 248 248 248 248 248 249 252 252 251 249 247 245 246 247 246 245 243 241 239 238 237 237 237 238 239 239 240 241 243 245 246 247 247 247 248 248 249 250 250 249 248 248 251 253 254 255 252 246 240 241 247 251 250 249 249 250 251 253 253 253 257 264 271 273 278
268 263 258 255 253 253 254 256 257 257 256 256 255 254 254 253 253 252 251 249 248 248 248 247 247 246 246 246 246 250 251 248 246 246 243 242 243 243 242 240 237 235 234 235 235 235 236 237 238 239 241 242 244 245 246 246 246 247 248 249 249 249 247 244 244 247 250 251 248 247 245 238 238 245 247 245 242 244 247 246 244 244 247 255 261 263 266 270
270 265 260 256 254 254 254 255 256 256 255 254 254 254 253 253 252 251 250 249 247 247 246 245 245 244 243 242 242 246 249 247 245 245 244 241 238 239 238 236 233 231 230 231 231 231 232 232 233 235 235 237 240 242 243 243 244 245 246 246 245 244 244 244 246 249 251 249 243 243 244 237 234 241 244 242 241 242 243 241 238 238 244 253 258 261 266 266
272 268 263 258 256 255 255 255 255 255 254 253 253 252 252 252 251 251 250 248 247 246 245 244 243 242 241 240 239 242 245 245 243 242 242 239 235 234 234 233 231 229 229 230 230 230 229 228 228 228 229 230 233 237 239 240 241 241 241 241 240 241 243 245 246 245 243 240 239 240 240 234 232 237 241 241 241 240 239 239 238 239 245 256 268 275 276 263
273 270 266 261 258 257 255 255 255 254 254 253 251 251 250 250 250 250 248 247 245 243 241 242 240 239 240 239 237 239 242 242 240 238 238 237 233 230 230 230 227 227 227 228 230 231 230 229 228 228 229 230 231 233 235 238 239 237 237 239 241 241 242 243 240 236 235 233 232 232 232 231 233 238 240 238 234 236 240 243 242 242 249 262 275 287 291 275
274 271 268 265 261 259 257 256 255 255 254 253 252 250 249 248 249 248 248 246 244 240 238 238 238 239 240 239 237 238 240 241 240 238 236 235 234 231 230 229 226 225 227 229 230 231 232 231 231 231 232 234 235 234 234 236 235 234 236 239 241 241 239 237 231 230 230 226 225 227 228 228 231 237 241 240 235 235 243 246 243 243 259 276 287 298 300 292
275 272 269 266 263 261 259 257 257 256 255 254 252 250 248 247 248 247 247 246 244 239 237 236 237 239 241 241 240 240 240 242 241 241 238 237 236 234 233 231 228 226 226 230 232 231 231 231 230 230 230 232 234 231 229 231 230 233 236 236 238 235 231 230 225 226 226 216 214 221 224 226 229 235 242 245 241 235 237 239 237 248 275 289 296 299 301 300
276 273 269 267 264 261 260 259 258 257 256 254 252 250 248 247 246 246 245 244 242 239 237 236 234 236 238 239 239 238 239 240 241 242 241 239 237 235 234 232 231 229 227 229 233 233 231 231 229 227 225 223 222 221 223 228 229 231 231 229 231 228 226 222 213 218 222 212 205 209 213 220 226 233 240 243 237 228 230 232 236 261 283 289 293 293 299 299
278 275 271 268 265 262 261 260 259 259 258 255 253 252 250 248 246 244 242 241 240 238 236 235 234 236 238 237 237 237 238 239 240 241 241 240 237 235 233 231 229 230 228 227 230 232 231 230 229 227 225 221 219 220 224 228 229 229 225 221 224 224 221 214 203 209 217 210 205 209 212 218 222 229 236 239 238 231 233 237 241 265 278 279 284 289 298 299
278 276 273 270 267 264 261 260 260 260 260 258 256 254 252 248 246 245 243 241 239 236 235 234 234 234 235 237 238 239 239 238 237 239 240 240 238 234 231 230 229 229 229 227 227 227 225 224 226 227 228 226 224 226 229 231 231 227 220 217 219 220 218 211 204 206 210 205 201 205 213 214 214 221 229 241 253 247 244 247 244 252 264 270 278 287 294 297
277 276 274 271 269 266 263 260 259 259 259 258 257 255 252 249 246 244 242 241 239 234 232 234 233 231 233 236 239 241 241 238 235 235 236 238 238 235 231 230 230 229 228 226 225 225 224 222 223 224 225 225 224 227 228 229 231 225 216 215 217 218 218 213 208 206 205 202 194 193 204 207 209 220 230 243 258 258 253 250 245 244 252 261 272 280 287 293
275 275 275 273 269 266 265 262 259 257 257 255 254 254 252 249 247 244 241 239 238 233 231 233 234 233 233 234 235 239 242 240 236 233 233 237 241 238 234 233 231 227 226 226 225 224 224 223 223 223 221 221 222 225 223 220 223 220 213 215 216 217 217 213 210 207 203 198 192 191 198 205 214 229 241 248 255 261 258 252 249 248 249 253 261 270 279 288
271 272 273 273 269 265 264 263 261 257 256 255 254 253 251 248 246 244 243 241 239 233 230 232 233 232 232 231 231 235 239 240 238 235 233 235 239 237 236 235 231 225 223 225 228 227 227 227 228 228 226 225 226 226 222 217 217 215 210 215 218 217 216 213 210 207 203 198 195 196 199 206 217 228 242 251 255 257 256 253 253 253 253 252 257 267 276 283
268 268 269 269 269 266 263 262 262 258 255 254 253 251 249 248 246 244 243 242 240 236 230 231 233 233 234 231 226 230 235 237 238 238 236 235 237 236 236 233 229 227 224 223 226 227 228 229 230 232 231 231 231 229 226 220 217 215 210 214 218 217 215 213 209 205 205 205 203 201 201 205 213 222 233 244 250 251 250 250 250 253 256 258 261 267 273 279
267 266 265 265 266 265 263 262 261 259 255 251 249 249 247 246 245 245 244 242 240 237 232 232 233 233 234 231 227 229 232 235 237 239 240 239 237 236 235 232 229 230 229 228 227 227 229 231 230 232 232 233 234 231 229 224 220 217 211 210 215 217 213 210 208 205 207 212 211 207 205 204 207 214 223 235 244 249 250 250 250 253 256 259 262 262 264 271
266 266 264 263 262 262 262 261 259 258 255 249 246 248 247 245 243 243 245 243 239 236 234 234 234 233 235 235 233 233 234 235 237 236 237 236 234 231 229 229 229 230 231 229 225 226 232 233 230 230 229 230 232 233 232 226 220 215 208 206 211 215 212 209 208 206 209 215 214 213 214 210 205 207 217 231 241 247 250 249 250 252 254 257 260 259 260 265
262 263 264 262 260 260 259 259 258 256 254 250 247 247 247 246 244 242 242 242 239 236 236 237 236 235 238 240 240 240 238 237 237 235 236 235 233 230 225 224 226 228 231 228 221 221 229 233 233 233 232 228 229 232 233 228 219 212 208 205 209 214 214 211 210 209 212 215 215 218 223 222 216 216 222 231 238 243 246 246 246 247 248 252 255 256 258 263
259 258 260 262 261 259 258 257 255 254 252 250 248 246 245 244 243 242 242 241 240 239 240 240 238 238 241 244 243 243 240 236 236 235 235 236 231 225 221 223 227 229 232 231 224 221 225 230 234 234 234 232 229 228 230 227 218 212 210 208 209 214 216 215 214 215 216 217 219 223 228 231 232 231 229 231 236 239 243 245 245 246 246 246 248 253 257 262
260 256 255 258 259 259 258 255 252 252 251 249 247 246 244 243 242 242 242 241 240 240 240 241 242 241 242 242 239 237 237 234 233 232 230 233 231 226 223 226 230 233 236 233 226 224 224 228 233 233 231 234 233 228 228 230 223 215 214 212 211 215 217 218 218 220 222 223 225 228 233 237 241 241 238 237 239 239 240 243 245 248 249 249 249 251 255 261
262 257 253 252 255 256 257 254 250 250 251 248 246 245 244 244 243 242 243 243 241 240 239 241 243 240 236 236 233 231 234 233 232 231 229 230 232 230 227 227 230 233 236 232 223 225 227 229 234 234 230 232 234 231 230 234 234 225 220 217 215 217 219 220 222 225 227 229 231 233 237 242 246 248 247 245 243 240 239 241 244 247 250 253 252 250 251 257
265 260 254 250 251 251 252 253 249 247 249 248 246 244 243 244 243 243 244 243 241 239 237 238 239 236 235 235 231 227 230 232 232 230 229 230 230 228 225 225 227 228 231 228 217 219 227 232 236 234 230 231 233 235 237 240 241 236 227 221 220 220 221 222 225 228 231 233 237 238 241 246 249 253 253 250 245 242 240 242 245 246 246 247 247 245 249 254
266 263 257 251 248 248 249 250 247 245 247 247 246 245 243 244 245 243 242 242 240 236 234 236 237 236 237 237 234 230 229 230 232 231 231 230 227 227 227 227 228 227 227 225 217 216 223 229 234 232 230 234 237 238 240 240 241 237 230 225 223 223 223 224 226 229 233 235 238 241 245 249 252 254 256 254 251 249 247 245 243 243 241 240 241 243 246 249
264 262 259 253 247 245 246 247 245 244 245 246 246 245 243 244 246 242 236 236 236 233 232 233 236 237 237 237 238 238 233 229 231 233 234 232 226 227 231 231 231 228 225 223 220 220 221 223 226 228 228 230 231 231 230 232 236 235 229 226 226 226 226 227 227 230 233 236 239 243 247 251 253 254 254 254 254 253 251 250 248 245 240 237 238 241 243 246
263 259 256 252 247 245 245 245 245 243 242 244 244 244 243 243 244 240 234 234 236 237 234 233 236 238 238 237 235 238 237 230 228 231 233 232 223 220 225 227 227 224 221 221 222 225 225 223 223 226 229 228 222 221 223 226 230 234 232 228 226 229 230 230 231 232 234 236 240 244 247 250 252 252 252 252 252 250 249 253 252 244 238 236 234 235 240 245
265 258 252 249 248 247 246 245 245 244 242 242 243 244 242 240 239 238 237 236 237 239 238 235 235 236 238 236 230 229 229 222 222 224 227 228 221 212 214 218 220 218 215 218 223 228 230 227 226 229 231 228 222 219 221 223 225 230 234 233 231 233 234 233 234 236 237 238 241 245 247 247 249 251 252 251 250 247 246 247 245 235 229 231 231 231 234 239
265 259 252 248 247 249 249 246 244 244 242 242 242 242 240 237 236 236 237 238 237 238 238 236 235 235 236 235 227 222 217 212 217 220 220 225 224 213 208 211 216 216 212 213 219 226 228 226 228 231 230 227 225 223 224 225 225 226 229 231 232 233 236 237 239 241 243 243 244 246 247 245 246 250 253 252 250 246 243 243 245 241 234 232 234 236 237 239
264 260 255 249 245 246 248 246 243 242 242 241 241 240 238 234 232 232 232 234 236 236 236 234 234 234 236 235 228 222 217 214 219 223 221 224 225 217 210 210 216 218 214 212 214 219 222 219 221 228 228 223 223 224 226 227 225 223 222 224 226 228 231 236 238 240 241 242 243 245 245 244 244 247 251 251 246 242 239 239 241 240 237 234 236 238 239 239
261 259 256 250 243 242 244 243 241 242 243 243 242 240 237 231 228 228 226 227 231 233 232 231 232 233 235 237 234 230 228 224 224 226 226 225 223 220 215 211 214 218 215 215 216 217 216 213 214 223 224 219 217 219 221 220 218 218 218 220 224 224 226 231 234 236 238 240 243 244 245 246 245 246 249 250 245 239 236 234 233 234 236 236 238 239 241 244
260 256 254 249 244 240 240 240 241 242 243 243 242 241 237 231 227 226 224 223 225 228 228 228 230 232 233 236 236 235 233 231 227 227 227 226 222 220 219 215 215 218 216 216 220 219 215 211 210 218 223 221 222 221 214 210 212 218 220 222 225 225 226 230 232 236 240 243 245 245 244 246 246 245 244 246 247 245 241 237 236 240 243 245 247 249 250 252
264 254 249 248 245 240 238 239 239 239 240 239 239 238 236 232 227 224 224 222 221 223 225 226 229 231 232 234 237 236 235 231 228 229 229 228 224 219 218 217 217 218 218 219 221 220 215 209 207 214 223 225 229 230 223 214 214 218 222 226 228 229 230 231 233 237 242 246 249 248 247 249 249 247 244 244 247 250 251 248 245 246 250 254 256 256 255 255
273 257 246 243 243 239 237 236 236 236 236 235 235 234 234 232 228 225 223 221 219 218 222 225 227 230 232 234 236 238 237 234 229 229 232 232 228 223 219 217 216 218 221 223 224 224 220 211 206 211 221 227 228 230 230 227 224 222 222 226 229 233 236 237 238 241 245 246 248 248 250 252 253 253 251 250 249 249 252 254 253 253 254 258 262 263 262 261
285 263 243 237 237 236 236 236 235 236 236 235 234 233 233 231 227 223 221 221 219 217 219 224 225 227 230 232 234 236 239 239 234 232 234 235 232 227 223 222 219 218 223 227 229 230 228 222 215 211 218 227 229 227 226 227 228 228 226 226 229 235 240 243 243 245 246 247 248 250 251 254 256 258 257 254 251 249 250 252 254 256 258 261 265 268 268 265
295 267 237 230 236 237 236 236 235 235 235 235 234 233 232 231 227 222 221 222 221 217 218 223 225 226 228 230 232 234 238 242 242 239 238 237 236 232 227 227 226 223 224 228 230 230 229 228 224 216 216 226 232 232 229 227 227 229 229 229 231 234 238 243 245 246 246 247 249 251 253 256 258 259 258 254 249 248 250 253 255 257 260 262 264 265 264 263
302 268 227 216 231 241 239 236 235 235 235 234 235 234 233 232 229 225 223 224 223 219 219 221 223 226 228 229 230 232 234 239 244 245 243 239 239 238 233 230 231 230 229 229 231 231 228 227 227 221 219 224 230 234 235 233 230 227 227 228 229 231 236 242 247 248 247 246 248 250 253 256 258 259 260 259 256 255 257 261 263 263 262 263 263 263 263 265
308 265 220 205 212 230 233 229 227 230 233 234 234 235 233 231 229 227 225 224 223 221 220 222 223 225 228 230 231 232 234 236 240 244 246 242 239 238 235 231 230 233 234 234 236 238 234 230 228 225 222 223 226 231 235 238 236 229 224 223 224 228 235 243 247 248 248 248 250 253 255 256 257 258 260 261 262 263 265 267 267 266 264 263 264 264 264 266
317 262 218 206 207 213 218 220 219 222 226 228 229 231 231 229 228 228 226 225 225 224 223 224 224 224 227 231 232 233 235 237 239 241 244 245 243 240 237 234 232 234 237 241 244 246 243 238 234 231 228 226 226 228 231 236 238 234 227 223 224 228 236 242 245 247 250 252 255 257 258 257 256 258 259 260 261 263 265 267 267 266 265 264 264 264 265 266
330 269 218 210 212 212 210 212 224 230 232 233 232 232 232 231 228 228 228 226 225 226 226 226 227 226 227 230 233 235 235 237 239 241 243 245 246 245 243 241 242 242 244 247 250 250 248 244 239 237 236 233 231 230 231 234 237 236 233 231 233 237 240 242 244 246 250 253 256 258 258 258 258 259 260 261 262 263 265 267 268 268 266 265 264 264 264 264
348 295 227 215 216 217 215 215 221 234 239 239 238 238 236 235 232 231 231 228 226 227 228 228 229 229 228 230 233 235 237 237 238 240 243 245 247 248 248 248 250 251 252 252 251 250 250 250 249 248 246 242 238 235 235 236 238 239 239 239 241 242 240 241 244 246 249 251 253 255 256 257 258 259 260 261 263 265 266 267 269 269 269 268 268 268 267 268
1 341 248 223 219 220 222 221 220 222 228 234 238 240 238 235 233 232 233 232 229 228 229 230 231 231 230 231 232 234 236 238 238 237 240 244 246 248 250 251 252 254 254 254 253 252 252 254 256 257 256 252 246 242 241 240 240 241 242 242 243 243 241 241 243 246 248 250 252 253 254 255 256 258 260 261 263 264 265 266 267 269 270 270 271 271 271 271
2 0 314 237 226 223 223 223 223 225 227 229 235 241 242 240 237 233 233 234 233 232 232 233 234 234 234 234 235 235 236 238 239 239 239 240 243 247 249 251 253 254 255 254 253 253 253 253 253 254 254 254 252 249 247 246 245 246 245 245 246 246 246 246 247 247 249 251 252 252 253 255 257 258 260 261 262 263 264 265 266 267 268 269 270 271 271 271